Location: Berkenwoude
(51.9462°N, 4.7070°E)
Time: 14:23:43
(UTC+00:00)

Daily predictions for brighter satellites

Satellite Brightness Start Highest point End
(mag) Time Altitude Azimuth Time Altitude Azimuth Time Altitude Azimuth
USA 267 3.3 16:34:09 10° ENE 16:40:44 89° SE 16:47:18 10° WSW
SL-24 R/B - RUBIN 2 4.3 16:35:40 10° SSW 16:40:52 62° SE 16:46:49 10° NE
Feng Yun 1-1 Rocket 4.4 16:35:40 10° SSE 16:41:18 66° ENE 16:47:07 10° NNW
Meteor 2-10 4.0 16:36:38 10° NNW 16:41:50 89° WSW 16:46:53 10° S
H-2A R/B 4.3 16:38:43 10° N 16:42:12 23° WNW 16:45:42 10° WSW
ALOS 4.0 16:38:31 10° SSW 16:42:52 38° W 16:47:15 10° NNW
Cosmos 1707 3.1 16:39:53 10° SSW 16:43:46 69° WNW 16:47:42 10° N
Helios 1A Rocket 3.6 16:43:17 10° S 16:47:15 59° WSW 16:51:17 10° NNW
Cosmos 2181 Rocket 4.1 16:43:15 10° N 16:49:42 84° E 16:56:10 10° S
Cosmos 1898 Rocket 3.6 16:47:00 10° SSW 16:52:19 75° ESE 16:57:39 10° NNE
Alouette 2 Rocket 4.2 16:48:20 10° N 16:52:19 44° ENE 16:57:55 10° SE
SJ 16-02 1.3 16:48:16 10° SSW 16:52:40 79° ESE 16:57:07 10° NNE
Cosmos 2082 Rocket 3.7 16:48:59 10° WSW 16:53:54 30° NW 16:58:49 10° NNE
Cosmos 1340 Rocket 4.0 16:52:55 10° NNE 16:55:55 20° ENE 16:58:55 10° ESE
Cosmos 2333 Rocket 2.3 16:50:41 10° NNW 16:56:22 56° NE 17:01:58 10° SE
Cosmos 2228 3.3 16:52:15 10° NNW 16:56:38 77° W 17:00:56 10° S
CZ-4B R/B 4.5 16:51:31 10° S 16:56:58 48° W 17:02:28 10° NNW
CZ-4C R/B 2.9 16:52:31 10° NW 16:59:12 59° NE 17:07:02 10° ESE
Meteor 2-5 Rocket 3.9 16:54:12 10° SSE 16:59:27 48° E 17:04:48 10° NNE
AQUARIUS 4.2 16:55:54 10° SSE 17:00:24 85° ENE 17:04:56 10° NNW
Cosmos 1953 4.0 16:56:36 10° NNW 17:00:26 39° W 17:04:12 10° SSW
Cosmos 2322 Rocket 4.0 16:55:23 10° NW 17:00:35 37° WSW 17:05:45 10° S
ATLAS 5 CENTAUR R/B 3.3 16:58:30 10° NW 17:01:01 25° NNE 17:05:44 11° ENE
Meteor 1-24 Rocket 4.1 16:56:23 10° SSE 17:01:11 36° E 17:06:04 10° NNE
Cosmos 2237 Rocket 3.0 16:58:15 10° NNW 17:03:14 31° NE 17:08:10 10° ESE
Cosmos 1892 Rocket 3.6 16:59:33 10° S 17:03:59 64° E 17:08:26 10° NNE
Cosmos 1937 Rocket 3.5 16:59:44 10° SSW 17:04:56 71° ESE 17:10:15 10° NNE
ATLAS CENTAUR R/B 3.4 17:04:26 10° NNW 17:07:10 16° N 17:09:32 11° NE
Cosmos 1939 Rocket 4.1 17:05:57 10° ESE 17:08:50 20° ENE 17:11:45 10° NNE
Cosmos 1812 Rocket 4.3 17:05:16 10° N 17:09:16 31° ENE 17:13:14 10° SE
Cosmos 1908 3.2 17:05:51 10° N 17:09:46 88° W 17:13:38 10° S
COSMOS 2487 2.4 17:08:30 10° SSW 17:11:58 86° WNW 17:15:29 10° NNE
Okean 1-7 Rocket 3.5 17:07:54 10° S 17:12:15 72° E 17:16:40 10° NNE
SL-14 R/B 4.2 17:09:47 10° SSE 17:13:13 28° E 17:16:38 10° NNE
Cosmos 1674 2.5 17:11:58 10° S 17:15:42 73° E 17:19:25 10° NNE
Cosmos 2074 Rocket 4.1 17:10:01 10° S 17:16:09 59° E 17:22:21 10° NNE
FengYun 1-2 T 4.3 17:10:41 10° SSE 17:16:12 61° ENE 17:21:47 10° N
Cosmos 1300 3.1 17:12:51 10° N 17:16:28 38° ENE 17:20:03 10° SE
In-Cosmos 22 4.3 17:13:30 10° SSW 17:18:51 74° WNW 17:24:10 10° N
YAOGAN 1 3.1 17:16:59 10° SE 17:20:56 36° ENE 17:24:55 10° N
SL-16 R/B 3.4 17:16:52 10° NNW 17:21:15 22° NE 17:23:51 16° ENE
Cosmos 2058 Rocket 3.4 17:18:37 10° NNW 17:22:59 71° W 17:27:18 10° S
KORONAS-FOTON 3.7 17:20:43 10° S 17:24:30 82° E 17:28:19 10° NNE
Cosmos 1271 Rocket 3.0 17:22:10 10° SSE 17:25:43 42° E 17:29:06 11° NNE
Meteor 2-1 Rocket 4.5 17:22:17 10° N 17:27:34 43° ENE 17:32:47 10° SE
Cosmos 1833 4.2 17:22:22 10° SSW 17:28:02 78° ESE 17:33:47 10° NNE
CZ-4 R/B 1.5 17:25:51 10° SE 17:29:44 51° ENE 17:33:44 10° N
CSL-04 Rocket 3.9 17:26:00 10° SE 17:31:15 49° ENE 17:36:36 10° N
Nadezhda 3 Rocket 4.0 17:25:41 10° N 17:31:54 63° ENE 17:38:09 10° SSE
Cosmos 2322 4.3 17:27:25 10° NW 17:33:00 62° WSW 17:38:35 10° SSE
Cosmos 1726 4.4 17:30:31 10° NNW 17:33:40 27° W 17:36:47 10° SSW
Envisat 3.2 17:28:37 10° S 17:33:42 76° WSW 17:38:49 10° NNW
Cosmos 1048 Rocket 3.9 17:31:27 10° NNW 17:36:40 82° ENE 17:41:47 10° SSE
Timation 2 Rocket 4.3 17:31:14 10° S 17:36:55 42° ESE 17:41:25 17° NE
Okean-O 2.9 17:34:14 10° S 17:38:39 74° WSW 17:43:07 10° NNW
Cosmos-2242 3.9 17:35:45 10° N 17:39:27 26° ENE 17:40:35 23° E
Cosmos 1602 Rocket 3.8 17:36:09 10° SSE 17:40:20 44° E 17:44:17 11° NNE
ATLAS 5 CENTAUR R/B 1.6 17:36:40 10° SW 17:40:58 86° SE 17:44:11 21° NE
COSMO-SKYMED 1 2.7 17:38:45 10° NNE 17:43:02 53° E 17:47:18 10° S
Cosmos 1980 3.8 17:39:16 10° NNW 17:44:53 53° NE 17:50:27 10° SE
NOSS 2-1 (E) 4.5 17:43:35 10° NW 17:48:14 46° NE 17:51:58 22° E
Cosmos 2297 Rocket 3.8 17:45:39 10° SE 17:47:59 16° ESE 17:47:59 16° ESE
Cosmos 2341 Rocket 4.4 17:43:37 10° SSE 17:49:30 40° E 17:55:22 10° NNE
Starlink P 4.5 17:49:12 10° SSW 17:51:11 19° SSE 17:51:11 19° SSE
COSMOS 2428 3.0 17:45:52 10° NNW 17:51:37 73° WSW 17:57:20 10° SSE
Cosmos 2360 Rocket 4.3 17:46:57 10° NW 17:51:44 29° WSW 17:56:29 10° SSW
Starlink U 4.5 17:50:15 10° SSW 17:52:13 20° SSE 17:52:13 20° SSE
Starlink B 4.5 17:51:15 10° SSW 17:53:12 20° SSE 17:53:12 20° SSE
Starlink D 4.5 17:52:17 10° SSW 17:54:13 20° SSE 17:54:13 20° SSE
Cosmos 1626 2.0 17:51:23 10° S 17:55:03 66° E 17:57:25 21° NNE
Starlink S 4.5 17:53:20 10° SSW 17:55:16 20° SSE 17:55:16 20° SSE
Starlink C 4.4 17:54:22 10° SSW 17:56:17 21° SSE 17:56:17 21° SSE
Cosmos 1758 Rocket 4.4 17:53:01 10° SSE 17:56:04 28° ESE 17:56:04 28° ESE
Cosmos 372 Rocket 3.9 17:52:35 10° SSW 17:57:42 82° ESE 18:01:52 16° NNE
Starlink E 4.4 17:55:28 10° SSW 17:57:22 21° SSE 17:57:22 21° SSE
Starlink J 4.4 17:56:31 10° SSW 17:58:27 22° SSE 17:58:27 22° SSE
Starlink V 4.4 17:57:36 10° SSW 17:59:29 21° SSE 17:59:29 21° SSE
Cosmos 2227 Rocket 3.8 17:56:49 10° SE 17:58:54 17° ESE 17:58:54 17° ESE
Cosmos 2298 Rocket 4.0 17:55:27 10° SSW 18:00:46 88° ESE 18:05:11 15° NNE
Starlink H 4.4 17:58:42 10° SSW 18:00:33 22° SSE 18:00:33 22° SSE
Cosmos 2219 Rocket 2.7 17:56:07 10° NW 18:01:44 61° WSW 18:07:18 10° SSE
Starlink F 4.4 17:59:47 10° SSW 18:01:38 22° SSE 18:01:38 22° SSE
NOAA 11 4.1 17:57:06 10° SSE 18:02:35 76° ENE 18:08:06 10° NNW
SL-8 Rocket 4.4 17:57:04 10° SSE 18:02:45 37° E 18:08:28 10° NNE
Starlink G 4.4 18:00:53 10° SSW 18:02:43 22° SSE 18:02:43 22° SSE
Starlink L 4.4 18:01:59 10° SSW 18:03:48 22° SSE 18:03:48 22° SSE
Cosmos 1626 Rocket 3.5 18:00:04 10° S 18:04:25 88° W 18:08:46 10° N
YAOGAN 6 3.8 18:01:27 10° S 18:05:01 44° W 18:08:35 10° NNW
Starlink A 4.4 18:03:05 10° SSW 18:04:53 22° SSE 18:04:53 22° SSE
Starlink R 4.4 18:04:12 10° SSW 18:05:59 23° S 18:05:59 23° S
SKYMED 3 4.5 18:02:30 10° NNE 18:06:53 89° ESE 18:11:14 10° SSW
CZ-2C R/B 4.4 18:08:10 23° NE 18:08:10 23° NE 18:11:21 10° N
Starlink K 4.4 18:05:16 10° SSW 18:07:02 23° S 18:07:02 23° S
H-2A R/B 3.1 18:09:03 25° NE 18:09:03 25° NE 18:12:01 10° N
Starlink M 4.4 18:06:19 10° SSW 18:08:04 23° S 18:08:04 23° S
Cosmos 1461 4.1 18:04:46 10° NW 18:08:52 45° WSW 18:13:06 10° SSE
NOSS 0 Rocket 4.0 18:04:25 10° NNW 18:10:42 84° WSW 18:16:54 10° SSE
Cosmos 1242 Rocket 2.8 18:12:26 10° SSW 18:15:53 65° WNW 18:17:41 27° N
Ariane Rocket 3.0 18:13:03 16° SE 18:17:02 53° ENE 18:21:58 10° N
ADEOS Rocket 3.5 18:14:04 25° NE 18:17:19 41° E 18:23:46 10° SSE
Cosmos 2251 Rocket 4.3 18:16:51 10° NNW 18:21:05 33° NE 18:21:05 33° NE
Cosmos 494 Rocket 4.1 18:17:39 10° NNW 18:22:47 75° WSW 18:27:52 10° SSE
USA 267 3.5 18:20:30 32° ENE 18:23:37 60° N 18:30:01 10° W
Cosmos 1825 Rocket 4.3 18:19:46 10° SSE 18:22:34 35° SE 18:22:34 35° SE
Cosmos 2218 Rocket 4.2 18:21:26 10° SSE 18:27:24 47° E 18:33:28 10° NNE
MOS 1 4.4 18:25:47 37° ESE 18:27:40 51° ENE 18:33:11 10° N
USA 32 3.9 18:23:25 10° S 18:28:38 81° E 18:33:54 10° N
Cosmos 1607 3.8 18:22:55 10° SW 18:29:03 80° SE 18:31:35 38° NE
SKYMED 2 4.2 18:26:59 11° N 18:31:05 55° WNW 18:35:18 10° SSW
SJ 16-02 3.8 18:28:43 10° W 18:31:50 18° NW 18:34:58 10° N
CZ-2D R/B 3.6 18:28:20 10° S 18:32:07 63° WSW 18:35:58 10° NNW
ARGOS 3.9 18:33:42 33° NNE 18:33:42 33° NNE 18:37:18 10° N
DMSP B5D1-3 4.4 18:30:30 37° NNE 18:32:29 67° ESE 18:37:33 10° S
Cosmos 1340 Rocket 3.9 18:28:50 10° NNW 18:32:37 45° W 18:36:23 10° S
SJ-11-01 4.4 18:35:03 55° NE 18:35:03 55° NE 18:39:11 10° N
Meteor 1-21 Rocket 4.1 18:29:52 10° S 18:35:23 68° E 18:38:27 28° NNE
Cosmos 2150 Rocket 4.5 18:30:23 10° SW 18:35:28 57° WNW 18:38:46 22° NNE
Cosmos 2154 Rocket 4.3 18:29:30 10° SSW 18:35:45 67° WNW 18:42:01 10° N
Cosmos 1339 Rocket 4.3 18:30:28 10° N 18:36:34 73° ENE 18:42:39 10° SSE
Cosmos 2082 Rocket 4.5 18:37:35 10° NW 18:39:59 13° NNW 18:42:23 10° N
Cosmos 2333 Rocket 4.0 18:35:22 10° NW 18:40:22 32° WSW 18:45:20 10° SSW
Cosmos 1939 Rocket 3.7 18:39:41 10° S 18:43:28 49° W 18:47:19 10° NNW
Cosmos 864 Rocket 4.5 18:37:35 10° SSE 18:51:45 - NNE 18:43:29 54° E
ATLAS CENTAUR R/B 4.2 18:38:56 10° WSW 18:45:25 78° NNW 18:54:34 30° ENE
ATLAS CENTAUR R/B 3.2 18:43:38 10° NNW 18:45:44 22° N 18:45:44 22° N
Cosmos 2237 Rocket 2.4 18:42:10 10° NW 18:47:46 67° WSW 18:52:00 18° SSE
CZ-4C R/B 3.6 18:41:05 10° NW 18:47:58 53° SW 18:55:49 10° SSE
NOSS 2-1 (C) 4.2 18:43:40 10° NW 18:48:41 89° SW 18:50:38 47° SE
NOSS 2-1 (D) 4.2 18:47:27 10° NW 18:52:29 85° SW 18:54:22 48° SE
YAOGAN 1 4.4 18:53:16 10° SSW 18:57:05 30° W 19:00:57 10° NNW
Cosmos 1125 Rocket 3.9 18:55:15 10° SW 19:00:23 61° WNW 19:01:57 42° N
Meteor 2-10 Rocket 3.6 18:56:06 10° NNW 19:01:38 78° W 19:03:45 37° S
Cosmos 1959 Rocket 4.3 18:55:43 10° S 19:01:53 76° E 19:03:27 52° NNE
CZ-4 R/B 4.1 19:02:08 10° SW 19:05:04 19° W 19:08:04 10° NW
SL-16 R/B 2.2 19:00:38 10° NNW 19:05:46 68° N 19:05:46 68° N
Cosmos 2366 rocket 3.8 19:02:24 10° S 19:08:35 81° E 19:09:55 58° NNE
Cosmos 2219 3.2 19:06:35 10° SSW 19:11:31 70° SSW 19:11:31 70° SSW
Cosmos-2242 4.2 19:13:04 10° NNW 19:17:10 40° W 19:17:37 39° WSW
ATLAS 5 CENTAUR R/B 3.3 19:22:10 10° W 19:25:44 29° NNW 19:25:44 29° NNW
Cosmos 1727 Rocket 4.0 19:21:31 10° NNW 19:27:44 76° W 19:28:17 71° SW
Cosmos 2297 Rocket 3.3 19:26:46 10° SSW 19:29:51 34° SSW 19:29:51 34° SSW
Cosmos 2227 Rocket 3.7 19:38:21 10° SSW 19:40:47 27° SSW 19:40:47 27° SSW
H-2A R/B 3.8 19:49:39 25° NW 19:49:39 25° NW 19:51:54 10° NNW
ADEOS Rocket 3.9 20:00:57 37° NNW 20:02:57 48° WNW 20:09:26 10° SW
USA 267 3.9 20:07:50 50° NW 20:07:50 50° NW 20:12:43 10° WNW
